Showing default

COSMOS 2024 (ETALON 2), 20026

Orbit data source: Space-Track

COSMOS 2024 (ETALON 2), 20026 is a payload satellite owned by NPO PM (CIS) in MEO that was launched on Wed, 31 May 1989 UTC via a PROTON-K/DM-2 launch vehicle from the Tyuratam Missile And Space Complex (TTMTR). Payloads include a variety of satellites, spacecraft, and rockets equipped with specific instruments for various scientific and technological missions. These include communications satellites like Starlink; space stations such as the ISS; scientific satellites like the Hubble; Earth observation satellites from companies like Planet Labs, Umbra, and HawkEye 360; GPS; miniature CubeSats for education and research; and military/defense satellites.

Loading next visibility...
COSMOS 2024 (ETALON 2) details
Identifier
20026, 1989-039C
Orbit
MEO
Last TLE update18 hours ago
Origin
Flag of CISNPO PM (CIS)
ManufacturerNPO PM
MissionOperational Defense Geodetic
Bus & MotorETALON, Unknown motor
Mass1,230 kg wet, 1,230 kg dry
Launch date (UTC)
1989-05-31 (36 years ago)
Launch vehicle
PROTON-K/DM-2
Launch site
Tyuratam Missile And Space Complex (TTMTR)
Object type
Payload
Rocket body
Debris
Shape & HBRSphere, 1.29 m
Radar Cross Section1.307 m², Large (>1 m²)

Expand to show TLE details & history

TLE from 18 hours ago
0 COSMOS 2024 (ETALON 2)
1 20026U 89039C   25025.07633980 -.00000065  00000-0  00000-0 0  9991
2 20026  65.2308 327.9872 0019855 216.2907 155.1429  2.13204440277675
Epoch: 2025-01-25T01:49Z
Definitive object data (Epoch: 2025-01-25T01:49:55.758Z)
Latitude10.46777°
Longitude-179.25964°
Altitude19,167.525 km
Speed3.947 km/s
True Right ascension22h 11m 24s
True Declination10° 27' 02"
Sunlit
Object was in daylight at TLE epoch
Visualization TLE readout
Latitude-46.02125°
Longitude24.33077°
Altitude19,089.688 km
Speed3.96 km/s
Apparent Right ascension11h 15m 15s
Apparent Declination-45° 41' 59"
Sunlit
Object is in daylight
Visualization observer readout
Local Sidereal Time21:20:39
Azimuth245.071° WSW
Elevation-68.329°
Doppler factor1
Orbital elements
Apogee altitude19,171.952 km
Perigee altitude19,070.694 km
Semi-major axis25,499.46 km
Eccentricity0.0019855
Inclination65.2308°
RAAN327.9872°
Arg. of periapsis216.2907°
True anomaly155.23833°
Mean anomaly155.1429°
Eccentric anomaly155.19063°
Mean motion0.53302 °/min
BSTARUnknown
Orbital period675.39 mins
Loading maneuver chart data...
Loading historical data...
Loading historical data...
Loading historical data...
Loading historical data...
Loading historical data...
Loading historical data...
Loading historical data...

COSMOS 2024 (ETALON 2) Visibility forecast

Observer location: undefined°, undefined

Span
Click to sort rows by Start time (UTC) header in descending order
Start Az.
Max El. time (UTC)
Max El. Az.
Max El.
End time (UTC)
End Az.
374 mins2025-01-25 23:48:37.305Z239.57° WSW2025-01-26 03:09:37.305Z16.729° NNE40.129°2025-01-26 06:02:37.305Z133.563° SE
|